EN

Hourly Weather Bratolyubivka

Today, 16 April, Friday

Time Temperature Precipitation Wind Pressure Humidity
00:00 +5°C° 0 mm 6 mps 755 mmHg 88%
01:00 +6°C° 0 mm 5 mps 755 mmHg 89%
02:00 +5°C° 0 mm 5 mps 755 mmHg 90%
03:00 +5°C° 0 mm 5 mps 755 mmHg 90%
04:00 +5°C° 0 mm 5 mps 755 mmHg 90%
05:00 +5°C° 0 mm 5 mps 756 mmHg 90%
06:00 +6°C° 0 mm 5 mps 756 mmHg 83%
07:00 +7°C° 0 mm 6 mps 756 mmHg 76%
08:00 +8°C° 0 mm 6 mps 756 mmHg 69%
09:00 +9°C° 0.1 mm 6 mps 756 mmHg 64%
10:00 +10°C° 0.1 mm 7 mps 756 mmHg 60%
11:00 +11°C° 0.1 mm 7 mps 756 mmHg 55%
12:00 +11°C° 0.3 mm 7 mps 756 mmHg 51%
13:00 +12°C° 0.3 mm 8 mps 756 mmHg 48%
14:00 +12°C° 0.3 mm 8 mps 756 mmHg 45%
15:00 +11°C° 0.1 mm 8 mps 756 mmHg 49%
16:00 +10°C° 0.1 mm 7 mps 756 mmHg 54%
17:00 +9°C° 0.1 mm 7 mps 756 mmHg 59%
18:00 +8°C° 0 mm 5 mps 757 mmHg 63%
19:00 +7°C° 0 mm 4 mps 757 mmHg 68%
20:00 +7°C° 0 mm 3 mps 758 mmHg 73%
21:00 +5°C° 0 mm 3 mps 758 mmHg 76%
22:00 +5°C° 0 mm 3 mps 758 mmHg 79%
23:00 +4°C° 0 mm 4 mps 758 mmHg 82%

Tomorrow, 17 April, Saturday

Time Temperature Precipitation Wind Pressure Humidity
00:00 +4°C° 0 mm 3 mps 759 mmHg 85%
01:00 +3°C° 0 mm 3 mps 759 mmHg 88%
02:00 +3°C° 0 mm 3 mps 759 mmHg 92%
03:00 +3°C° 0 mm 3 mps 759 mmHg 92%
04:00 +3°C° 0 mm 3 mps 759 mmHg 92%
05:00 +2°C° 0 mm 3 mps 759 mmHg 93%
06:00 +4°C° 0 mm 3 mps 760 mmHg 85%
07:00 +7°C° 0 mm 3 mps 760 mmHg 78%
08:00 +9°C° 0 mm 3 mps 760 mmHg 70%
09:00 +10°C° 0 mm 3 mps 760 mmHg 63%
10:00 +12°C° 0 mm 3 mps 760 mmHg 56%
11:00 +13°C° 0 mm 3 mps 760 mmHg 48%
12:00 +13°C° 0 mm 3 mps 760 mmHg 47%
13:00 +14°C° 0 mm 3 mps 760 mmHg 45%
14:00 +14°C° 0 mm 3 mps 760 mmHg 43%
15:00 +14°C° 0 mm 3 mps 759 mmHg 45%
16:00 +14°C° 0 mm 2 mps 759 mmHg 47%
17:00 +14°C° 0 mm 2 mps 759 mmHg 50%
18:00 +13°C° 0 mm 2 mps 759 mmHg 54%
19:00 +10°C° 0 mm 3 mps 760 mmHg 58%
20:00 +9°C° 0 mm 3 mps 760 mmHg 63%
21:00 +8°C° 0 mm 3 mps 760 mmHg 65%
22:00 +7°C° 0 mm 3 mps 759 mmHg 68%
23:00 +6°C° 0 mm 2 mps 759 mmHg 70%

Day after tomorrow, 18 April, Sunday

Time Temperature Precipitation Wind Pressure Humidity
00:00 +6°C° 0 mm 2 mps 759 mmHg 70%
01:00 +6°C° 0 mm 2 mps 759 mmHg 70%
02:00 +6°C° 0 mm 2 mps 759 mmHg 70%
03:00 +5°C° 0 mm 2 mps 758 mmHg 71%
04:00 +4°C° 0 mm 3 mps 758 mmHg 72%
05:00 +4°C° 0 mm 3 mps 758 mmHg 73%
06:00 +7°C° 0 mm 3 mps 758 mmHg 69%
07:00 +7°C° 0 mm 4 mps 758 mmHg 64%
08:00 +10°C° 0 mm 4 mps 758 mmHg 60%
09:00 +10°C° 0 mm 5 mps 758 mmHg 58%
10:00 +12°C° 0 mm 5 mps 757 mmHg 55%
11:00 +13°C° 0 mm 5 mps 757 mmHg 53%
12:00 +13°C° 0 mm 5 mps 757 mmHg 54%
13:00 +13°C° 0 mm 5 mps 757 mmHg 55%
14:00 +13°C° 0 mm 5 mps 757 mmHg 57%
15:00 +12°C° 0 mm 5 mps 757 mmHg 61%
16:00 +10°C° 0 mm 5 mps 757 mmHg 65%
17:00 +11°C° 0 mm 4 mps 757 mmHg 69%
18:00 +10°C° 0 mm 4 mps 756 mmHg 72%
19:00 +9°C° 0 mm 3 mps 756 mmHg 75%
20:00 +9°C° 0 mm 3 mps 756 mmHg 78%
21:00 +9°C° 0.1 mm 2 mps 756 mmHg 80%
22:00 +9°C° 0.1 mm 2 mps 756 mmHg 83%
23:00 +10°C° 0.1 mm 1 mps 756 mmHg 85%

19 April, Monday

Time Temperature Precipitation Wind Pressure Humidity
00:00 +10°C° 0.4 mm 1 mps 755 mmHg 87%
01:00 +8°C° 0.4 mm 2 mps 755 mmHg 89%
02:00 +8°C° 0.4 mm 2 mps 755 mmHg 92%
03:00 +8°C° 0 mm 2 mps 754 mmHg 92%
04:00 +8°C° 0 mm 2 mps 754 mmHg 93%
05:00 +8°C° 0 mm 2 mps 754 mmHg 93%
06:00 +10°C° 0 mm 1 mps 754 mmHg 92%
07:00 +10°C° 0 mm 1 mps 754 mmHg 91%
08:00 +10°C° 0 mm 1 mps 754 mmHg 90%
09:00 +11°C° 0 mm 1 mps 753 mmHg 87%
10:00 +12°C° 0 mm 1 mps 752 mmHg 83%
11:00 +13°C° 0 mm 1 mps 752 mmHg 80%
12:00 +13°C° 0.1 mm 1 mps 751 mmHg 77%
13:00 +14°C° 0.1 mm 2 mps 751 mmHg 75%
14:00 +14°C° 0.1 mm 2 mps 750 mmHg 73%
15:00 +13°C° 0.6 mm 3 mps 750 mmHg 79%
16:00 +12°C° 0.6 mm 3 mps 749 mmHg 85%
17:00 +11°C° 0.6 mm 4 mps 748 mmHg 91%
18:00 +11°C° 0.9 mm 4 mps 747 mmHg 93%
19:00 +10°C° 0.9 mm 5 mps 747 mmHg 94%
20:00 +9°C° 0.9 mm 6 mps 746 mmHg 96%
21:00 +10°C° 2.3 mm 6 mps 745 mmHg 96%
22:00 +10°C° 2.3 mm 6 mps 744 mmHg 97%
23:00 +10°C° 2.3 mm 6 mps 743 mmHg 97%

20 April, Tuesday

Time Temperature Precipitation Wind Pressure Humidity
00:00 +10°C° 1.1 mm 6 mps 742 mmHg 95%
01:00 +10°C° 1.1 mm 6 mps 741 mmHg 92%
02:00 +10°C° 1.1 mm 6 mps 740 mmHg 90%
03:00 +9°C° 0 mm 6 mps 740 mmHg 88%
04:00 +8°C° 0 mm 6 mps 739 mmHg 85%
05:00 +6°C° 0 mm 7 mps 738 mmHg 82%
06:00 +7°C° 0.8 mm 6 mps 737 mmHg 86%
07:00 +7°C° 0.8 mm 5 mps 737 mmHg 90%
08:00 +8°C° 0.8 mm 4 mps 736 mmHg 94%
09:00 +8°C° 0.3 mm 6 mps 737 mmHg 90%
10:00 +9°C° 0.3 mm 8 mps 739 mmHg 85%
11:00 +8°C° 0.3 mm 10 mps 740 mmHg 81%
12:00 +8°C° 0.4 mm 11 mps 742 mmHg 83%
13:00 +7°C° 0.4 mm 11 mps 743 mmHg 84%
14:00 +6°C° 0.4 mm 11 mps 745 mmHg 86%
15:00 +7°C° 0.1 mm 10 mps 746 mmHg 79%
16:00 +9°C° 0.1 mm 10 mps 747 mmHg 72%
17:00 +11°C° 0.1 mm 9 mps 748 mmHg 64%
18:00 +10°C° 0 mm 8 mps 749 mmHg 69%
19:00 +9°C° 0 mm 8 mps 750 mmHg 73%
20:00 +8°C° 0 mm 7 mps 751 mmHg 78%
21:00 +6°C° 0 mm 7 mps 752 mmHg 82%
22:00 +7°C° 0 mm 6 mps 752 mmHg 87%
23:00 +7°C° 0 mm 6 mps 753 mmHg 92%

21 April, Wednesday

Time Temperature Precipitation Wind Pressure Humidity
00:00 +7°C° 0 mm 6 mps 753 mmHg 93%
01:00 +7°C° 0 mm 6 mps 753 mmHg 93%
02:00 +7°C° 0 mm 6 mps 753 mmHg 94%
03:00 +7°C° 0 mm 6 mps 753 mmHg 94%
04:00 +7°C° 0 mm 6 mps 754 mmHg 95%
05:00 +7°C° 0 mm 5 mps 754 mmHg 95%
06:00 +7°C° 0.1 mm 5 mps 754 mmHg 91%
07:00 +8°C° 0.1 mm 5 mps 755 mmHg 86%
08:00 +9°C° 0.1 mm 5 mps 755 mmHg 82%
09:00 +11°C° 0.3 mm 6 mps 755 mmHg 75%
10:00 +13°C° 0.3 mm 6 mps 755 mmHg 69%
11:00 +14°C° 0.3 mm 7 mps 755 mmHg 63%
12:00 +14°C° 0.2 mm 7 mps 756 mmHg 59%
13:00 +15°C° 0.2 mm 7 mps 756 mmHg 55%
14:00 +16°C° 0.2 mm 7 mps 756 mmHg 51%
15:00 +15°C° 0 mm 6 mps 756 mmHg 53%
16:00 +15°C° 0 mm 5 mps 756 mmHg 55%
17:00 +15°C° 0 mm 5 mps 756 mmHg 56%
18:00 +13°C° 0 mm 4 mps 757 mmHg 65%
19:00 +11°C° 0 mm 4 mps 757 mmHg 73%
20:00 +9°C° 0 mm 3 mps 758 mmHg 81%
21:00 +9°C° 0 mm 3 mps 758 mmHg 84%
22:00 +8°C° 0 mm 3 mps 758 mmHg 86%
23:00 +7°C° 0 mm 3 mps 759 mmHg 89%
Show more

We Need Your Consent

Meteoprog and our Service Providers may store and access personal data such as cookies, device identifiers or other similar technologies on your device and process such data to personalise content and ads, as well as provide social media features and to analyse the traffic.

  • Store and/or access information on your device

    Cookies, device identifiers or other information can be stored or accessed on your device for the purposes indicated above.

  • Personalised ads and content, ad and content measurement, audience insights, and products development

    Ads and content can be personalised based on a profile. More data can be added to better personalise ads and content. Ad and content performance can be measured. Insights about the audience who saw the ads and content can be derived. Such data can be used to develop or improve user’s experience, systems and software.

By clicking ‘I Agree’ you will allow the use of indicated cookies, device identifiers, web beacons or other similar technologies. Your settings can be changed in the browser on your device.

For certain purposes, legitimate interests may be relied on, rather than consent. You can read more about this in our Privacy and Cookie Policy.